Stations météo

réclame
Mon MeteoGroup
Ramstein, Allemagne (10614): Température de l'air & dewpoint: 17.10.2018 07:00:00 - 23.10.2018 07:00:00 (CEST)Ramstein, Allemagne (10614): Vitesse du vent & gusts: 17.10.2018 07:00:00 - 23.10.2018 07:00:00 (CEST)Ramstein, Allemagne (10614): Direction du vent: 17.10.2018 07:00:00 - 23.10.2018 07:00:00 (CEST)Ramstein, Allemagne (10614): reduced air pressure: 17.10.2018 07:00:00 - 23.10.2018 07:00:00 (CEST)Ramstein, Allemagne (10614): visibility: 17.10.2018 07:00:00 - 23.10.2018 07:00:00 (CEST)Ramstein, Allemagne (10614): Quantités de précipitations: 17.10.2018 07:00:00 - 23.10.2018 07:00:00 (CEST)
Date & Time tt [°C] td [°C] ff [km/h] ff [knt] fx [km/h] fx [knt] dd ppp [hPa] vv [km] rr [mm]
23.10.2018 07:00:00 2,0 2,0 5 3 - - SSW 1030,4 0,4 -
23.10.2018 06:00:00 3,0 3,0 0 0 - - N 1031,0 0,4 -
23.10.2018 05:00:00 3,0 3,0 0 0 - - N 1031,7 0,4 -
23.10.2018 04:00:00 3,0 3,0 0 0 - - N 1032,3 0,4 -
23.10.2018 03:00:00 0,5 0,5 0 0 - - N 1032,4 3,2 -
23.10.2018 02:00:00 0,4 0,4 0 0 - - N 1032,7 8 -
23.10.2018 01:00:00 2,5 2,5 0 0 - - N 1032,9 8 -
23.10.2018 00:00:00 3,2 3,2 0 0 - - N 1033,2 9 -
22.10.2018 23:00:00 6,4 6,4 0 0 - - N 1033,5 10 -
22.10.2018 22:00:00 6,7 6,7 0 0 - - N 1033,3 10 -
22.10.2018 21:00:00 10,9 10,9 9 5 - - NE 1032,9 10 -
22.10.2018 20:00:00 11,4 11,4 13 7 - - NNE 1033,0 10 -
22.10.2018 19:00:00 11,7 11,7 15 8 - - NNE 1032,3 10 -
22.10.2018 18:00:00 12,5 12,3 11 6 - - NW 1030,8 10 -
22.10.2018 17:00:00 13,6 13,4 16 9 - - NNE 1030,2 10 -
22.10.2018 16:00:00 14,4 14,2 18 10 - - N 1029,7 10 0,0
22.10.2018 15:00:00 15,4 14,9 21 11 - - NNE 1029,3 10 0,0
22.10.2018 14:00:00 15,7 14,6 16 9 - - N 1029,5 10 -
22.10.2018 13:00:00 14,3 13,3 0 0 - - N 1029,5 10 -
22.10.2018 12:00:00 12,0 11,8 0 0 - - N 1029,7 10 -
22.10.2018 11:00:00 8,1 8,1 0 0 - - N 1030,0 10 -
22.10.2018 10:00:00 4,0 3,0 0 0 - - N 1029,7 10 -
22.10.2018 09:00:00 1,0 -1,0 0 0 - - N 1029,5 10 -
22.10.2018 08:00:00 -1,0 -2,0 0 0 - - N 1028,8 10 -
22.10.2018 07:00:00 -1,0 -2,0 0 0 - - N 1028,4 10 -
22.10.2018 06:00:00 1,0 1,0 0 0 - - N 1027,6 10 -
22.10.2018 05:00:00 -1,0 -1,0 0 0 - - N 1027,4 10 -
22.10.2018 04:00:00 1,3 1,3 0 0 - - N 1026,8 10 -
22.10.2018 03:00:00 0,1 0,1 0 0 - - N 1026,9 10 -
22.10.2018 02:00:00 1,4 1,4 0 0 - - N 1026,9 10 -
22.10.2018 01:00:00 4,2 4,2 0 0 - - N 1026,8 10 -
22.10.2018 00:00:00 3,1 3,1 0 0 - - N 1027,0 10 -
21.10.2018 23:00:00 1,6 1,6 0 0 - - N 1027,6 10 -
21.10.2018 22:00:00 4,2 4,2 0 0 - - N 1027,4 10 -
21.10.2018 21:00:00 5,0 5,0 0 0 - - N 1027,5 10 -
21.10.2018 20:00:00 6,7 6,7 0 0 - - N 1027,5 10 -
21.10.2018 19:00:00 9,6 9,4 5 3 - - E 1027,4 10 -
21.10.2018 18:00:00 14,2 13,4 11 6 - - NE 1027,0 10 -
21.10.2018 17:00:00 15,8 14,7 13 7 - - ENE 1026,8 10 -
21.10.2018 16:00:00 16,3 14,8 18 10 - - ENE 1027,3 10 -
21.10.2018 15:00:00 15,8 14,7 9 5 - - ENE 1027,5 10 -
21.10.2018 14:00:00 15,4 14,6 21 11 - - NE 1028,0 10 -
21.10.2018 13:00:00 14,0 13,8 16 9 - - E 1028,5 10 -
21.10.2018 12:00:00 11,6 11,6 11 6 - - NNE 1029,3 10 -
21.10.2018 11:00:00 8,3 8,3 0 0 - - N 1029,7 10 -
21.10.2018 10:00:00 4,0 4,0 8 4 - - NE 1030,3 10 -
21.10.2018 09:00:00 0,0 0,0 0 0 - - N 1030,1 10 -
21.10.2018 08:00:00 3,0 3,0 0 0 - - N 1029,7 8 -
21.10.2018 07:00:00 3,0 3,0 0 0 - - N 1030,0 9 -
21.10.2018 06:00:00 3,0 3,0 0 0 - - N 1029,7 9 -
21.10.2018 05:00:00 3,0 3,0 0 0 - - N 1029,2 9 -
21.10.2018 04:00:00 3,0 3,0 0 0 - - N 1029,5 9 -
21.10.2018 03:00:00 3,0 3,0 0 0 - - N 1029,9 10 -
21.10.2018 02:00:00 3,0 3,0 0 0 - - N 1030,6 9 -
21.10.2018 01:00:00 3,0 3,0 0 0 - - N 1030,2 9 -
21.10.2018 00:00:00 3,7 3,7 0 0 - - N 1030,6 10 -
20.10.2018 23:00:00 5,2 5,2 5 3 - - ESE 1030,3 10 -
20.10.2018 22:00:00 6,4 6,4 8 4 - - ENE 1030,9 10 -
20.10.2018 21:00:00 7,4 7,4 0 0 - - N 1030,7 10 -
20.10.2018 20:00:00 8,7 8,7 0 0 - - N 1030,3 10 -
20.10.2018 19:00:00 10,6 10,6 0 0 - - N 1029,9 10 -
20.10.2018 18:00:00 14,9 14,7 8 4 - - N 1028,8 10 -
20.10.2018 17:00:00 16,8 16,6 8 4 - - N 1028,7 10 -
20.10.2018 16:00:00 17,4 17,2 5 3 - - N 1029,1 10 -
20.10.2018 15:00:00 17,1 16,9 0 0 - - N 1029,0 10 -
20.10.2018 14:00:00 17,1 17,1 15 8 - - NNW 1029,6 10 -
20.10.2018 13:00:00 15,8 15,8 9 5 - - N 1030,1 10 -
20.10.2018 12:00:00 14,2 14,2 9 5 - - NNE 1030,2 10 -
20.10.2018 11:00:00 11,0 9,0 5 3 - - E 1030,0 10 -
20.10.2018 10:00:00 6,0 5,0 0 0 - - N 1029,7 10 -
20.10.2018 09:00:00 3,0 2,0 0 0 - - N 1029,2 9 -
20.10.2018 08:00:00 2,0 1,0 0 0 - - N 1028,6 8 -
20.10.2018 07:00:00 2,0 1,0 0 0 - - N 1027,7 9 -
20.10.2018 06:00:00 2,0 1,0 0 0 - - N 1027,1 10 -
20.10.2018 05:00:00 3,0 2,0 0 0 - - N 1026,6 9 -
20.10.2018 04:00:00 4,0 3,0 0 0 - - N 1025,9 9 -
20.10.2018 03:00:00 4,0 3,0 0 0 - - N 1025,9 9 -
20.10.2018 02:00:00 6,0 5,0 0 0 - - N 1025,5 9 -
20.10.2018 01:00:00 4,0 3,0 0 0 - - N 1025,3 10 -
20.10.2018 00:00:00 5,0 4,0 0 0 - - N 1025,3 10 -
19.10.2018 23:00:00 5,0 4,0 0 0 - - N 1025,6 10 -
19.10.2018 22:00:00 8,0 7,0 0 0 - - N 1025,1 10 -
19.10.2018 21:00:00 7,4 7,4 0 0 - - N 1024,6 10 -
19.10.2018 20:00:00 9,2 9,2 0 0 - - N 1023,8 10 -
19.10.2018 19:00:00 12,3 12,3 5 3 - - ENE 1023,1 10 -
19.10.2018 18:00:00 16,8 16,8 9 5 - - NE 1022,3 10 -
19.10.2018 17:00:00 18,4 18,2 9 5 - - N 1022,1 10 -
19.10.2018 16:00:00 18,7 18,7 8 4 - - NNE 1022,4 10 -
19.10.2018 15:00:00 18,3 18,3 13 7 - - NNE 1022,4 10 -
19.10.2018 14:00:00 17,5 17,5 16 9 - - NNE 1022,7 10 -
19.10.2018 13:00:00 16,0 16,0 9 5 - - NNE 1023,4 9 -
19.10.2018 12:00:00 14,0 14,0 0 0 - - N 1023,9 8 -
19.10.2018 11:00:00 12,0 11,0 5 3 - - ENE 1023,9 6 -
19.10.2018 10:00:00 10,0 9,0 9 5 - - ENE 1023,9 10 -
19.10.2018 09:00:00 7,0 7,0 0 0 - - N 1023,3 9 -
19.10.2018 08:00:00 7,0 6,0 0 0 - - N 1022,8 10 -
19.10.2018 07:00:00 6,0 5,0 0 0 - - N 1022,5 10 -
19.10.2018 06:00:00 4,0 3,0 0 0 - - N 1022,6 10 -
19.10.2018 05:00:00 6,0 6,0 0 0 - - N 1022,3 10 -
19.10.2018 04:00:00 4,0 4,0 0 0 - - N 1022,3 10 -
19.10.2018 03:00:00 5,0 5,0 0 0 - - N 1022,3 10 -
19.10.2018 02:00:00 6,0 6,0 0 0 - - N 1022,3 10 -
19.10.2018 01:00:00 7,0 7,0 0 0 - - N 1022,6 10 -
19.10.2018 00:00:00 7,0 7,0 8 4 - - ENE 1022,6 9 -
18.10.2018 23:00:00 10,9 10,9 8 4 - - ENE 1022,6 8 -
18.10.2018 22:00:00 11,3 11,3 0 0 - - N 1022,5 8 -
18.10.2018 21:00:00 13,3 13,3 9 5 - - NNE 1022,3 8 -
18.10.2018 20:00:00 14,4 14,4 13 7 - - NNE 1022,0 8 -
18.10.2018 19:00:00 15,8 15,8 8 4 - - NNE 1021,5 10 -
18.10.2018 18:00:00 17,4 17,4 16 9 50 27 N 1020,8 10 -
18.10.2018 17:00:00 19,8 19,8 18 10 - - N 1020,2 10 -
18.10.2018 16:00:00 21,0 21,0 13 7 - - NNE 1020,1 10 -
18.10.2018 15:00:00 20,2 20,2 13 7 - - NNE 1020,2 10 -
18.10.2018 14:00:00 19,4 19,4 15 8 - - NNE 1020,6 10 -
18.10.2018 13:00:00 18,8 18,8 15 8 - - N 1020,9 10 -
18.10.2018 12:00:00 18,1 18,1 13 7 - - NE 1021,3 10 -
18.10.2018 11:00:00 14,9 14,9 0 0 - - N 1021,4 10 -
18.10.2018 10:00:00 10,0 9,0 0 0 - - N 1021,6 10 -
18.10.2018 09:00:00 6,0 5,0 0 0 - - N 1021,5 10 -
18.10.2018 08:00:00 4,0 4,0 0 0 - - N 1020,8 8 -
18.10.2018 07:00:00 6,0 5,0 0 0 - - N 1020,2 10 -
18.10.2018 06:00:00 5,0 4,0 0 0 - - N 1019,7 10 -
18.10.2018 05:00:00 5,0 5,0 0 0 - - N 1019,1 10 -
18.10.2018 04:00:00 6,0 6,0 0 0 - - N 1019,5 10 -
18.10.2018 03:00:00 7,0 7,0 0 0 - - N 1019,4 10 -
18.10.2018 02:00:00 8,0 8,0 0 0 - - N 1019,4 10 -
18.10.2018 01:00:00 7,0 7,0 0 0 - - N 1019,6 10 -
18.10.2018 00:00:00 8,0 8,0 0 0 - - N 1019,7 10 -
17.10.2018 23:00:00 8,4 8,4 0 0 - - N 1019,8 10 -
17.10.2018 22:00:00 9,2 9,2 5 3 - - E 1019,7 10 -
17.10.2018 21:00:00 9,5 9,5 0 0 - - N 1019,4 10 -
17.10.2018 20:00:00 12,3 12,3 0 0 - - N - 10 -
17.10.2018 19:00:00 14,5 14,5 0 0 - - N 1018,6 10 -
17.10.2018 18:00:00 19,5 19,3 8 4 - - ENE 1018,0 10 -
17.10.2018 17:00:00 22,1 21,9 11 6 - - NNE 1017,4 10 -
17.10.2018 16:00:00 22,7 22,3 8 4 - - ENE 1017,8 10 -
17.10.2018 15:00:00 22,5 22,3 0 0 - - N 1017,9 10 -
17.10.2018 14:00:00 21,2 21,2 0 0 - - N 1018,5 10 -
17.10.2018 13:00:00 19,3 19,3 0 0 - - N 1019,3 10 -
17.10.2018 12:00:00 16,7 16,7 0 0 - - N 1019,7 10 -
17.10.2018 11:00:00 13,4 13,4 0 0 - - N 1019,9 10 -
17.10.2018 10:00:00 10,0 8,0 0 0 - - N 1019,9 10 -
17.10.2018 09:00:00 8,0 6,0 0 0 - - N 1020,1 10 -
17.10.2018 08:00:00 4,0 4,0 0 0 - - N - 10 -
17.10.2018 07:00:00 3,0 3,0 0 0 - - N 1020,1 10 -

tt = Température de l'air
td = dewpoint
ff = Vitesse du vent
fx = gusts
dd = Direction du vent
ppp = reduced air pressure
vv = visibility
rr = Quantités de précipitations

stations d'obs. à proximité